Vicksburg, LA

4:00 AM CDT on July 23, 2017 (GMT -0500)
Vicksburg Tallulah Regional

Weather History for KTVR - May, 2013

Change the Weather History Date:

Thursday, May 23, 2013

  Actual Average Record
Temperature  
Mean Temperature 75 °F 75 °F  
Max Temperature 88 °F 86 °F 93 °F (1999)
Min Temperature 62 °F 64 °F 51 °F (2002)
Degree Days  
Heating Degree Days 0 0  
Month to date heating degree days 52 9  
Since 1 July heating degree days 2332 2350  
Cooling Degree Days 10 10  
Month to date cooling degree days 118 167  
Year to date cooling degree days 240 285  
Growing Degree Days 25 (Base 50)    
Moisture  
Dew Point 69 °F    
Average Humidity 81    
Maximum Humidity 100    
Minimum Humidity 61    
Precipitation  
Precipitation 0.00 in 0.16 in 1.48 in (1955)
Month to date precipitation 4.43 3.86  
Year to date precipitation 34.67 24.20  
Sea Level Pressure  
Sea Level Pressure 30.03 in    
Wind  
Wind Speed 1 mph (NE)    
Max Wind Speed 8 mph    
Max Gust Speed 10 mph    
Visibility 5 miles    
Events Fog    
T = Trace of Precipitation, MM = Missing Value Source: NWS Daily Summary

Daily Weather History Graph

Daily Weather History Graph

Search for Another Location

Airport or City:

Trip Planner

Search our weather history database for the weather conditions in past years. The results will help you decide how hot, cold, wet, or windy it might be!

Date:

Astronomy

May. 23, 2013 Rise Set
Actual Time 6:01 AM CDT 8:00 PM CDT
Civil Twilight 5:33 AM CDT 8:28 PM CDT
Nautical Twilight 5:00 AM CDT 9:01 PM CDT
Astronomical Twilight 4:24 AM CDT 9:37 PM CDT
Moon 6:37 PM CDT 4:40 AM CDT
Length of Visible Light 14h 54m
Length of Day
13h 59m
Waxing Gibbous, 97% of the Moon is Illuminated
May 23
Waxing Gibbous
May 24
Full
May 31
Last Quarter
Jun 8
New
Jun 16
First Quarter

Hourly Weather History & Observations

Time (CDT) Temp. Heat Index Dew Point Humidity Pressure Visibility Wind Dir Wind Speed Gust Speed Precip Events Conditions
12:28 AM 64.4 °F - 62.6 °F 94% 29.96 in 0.2 mi Calm Calm - N/A Fog Fog
12:53 AM 64.9 °F - 64.0 °F 97% 29.98 in 0.2 mi Calm Calm - N/A Fog Fog
1:53 AM 64.0 °F - 63.0 °F 96% 29.98 in 0.2 mi Calm Calm - N/A Fog Fog
2:53 AM 64.0 °F - 64.0 °F 100% 29.98 in 0.2 mi Calm Calm - N/A Fog Fog
3:53 AM 63.0 °F - 62.1 °F 97% 29.99 in 0.2 mi Calm Calm - N/A Fog Fog
4:53 AM 63.0 °F - 63.0 °F 100% 29.99 in 0.2 mi Calm Calm - N/A Fog Fog
5:53 AM 63.0 °F - 62.1 °F 97% 30.01 in 0.2 mi Calm Calm - N/A Fog Fog
6:53 AM 66.0 °F - 64.9 °F 96% 30.03 in 0.2 mi Calm Calm - N/A Fog Fog
7:03 AM 68.0 °F - 66.2 °F 94% 30.02 in 0.2 mi Calm Calm - N/A Fog Fog
7:13 AM 69.8 °F - 68.0 °F 94% 30.02 in 2.5 mi Calm Calm - N/A   Overcast
7:20 AM 69.8 °F - 69.8 °F 100% 30.02 in 4.0 mi Calm Calm - N/A   Overcast
7:31 AM 69.8 °F - 69.8 °F 100% 30.02 in 4.0 mi Calm Calm - N/A   Overcast
7:53 AM 71.1 °F - 71.1 °F 100% 30.04 in 7.0 mi Calm Calm - N/A   Overcast
8:53 AM 73.0 °F - 72.0 °F 96% 30.05 in 8.0 mi Calm Calm - N/A   Overcast
9:53 AM 78.1 °F - 73.0 °F 84% 30.05 in 7.0 mi Calm Calm - N/A   Overcast
10:53 AM 79.0 °F - 72.0 °F 79% 30.08 in 8.0 mi Calm Calm - N/A   Mostly Cloudy
11:07 AM 80.6 °F 84.6 °F 71.6 °F 74% 30.07 in 9.0 mi Calm Calm - N/A   Scattered Clouds
11:31 AM 80.6 °F 84.6 °F 71.6 °F 74% 30.06 in 9.0 mi Calm Calm - N/A   Mostly Cloudy
11:53 AM 82.9 °F 88.0 °F 72.0 °F 69% 30.08 in 10.0 mi NNE 3.5 mph - N/A   Scattered Clouds
12:50 PM 82.4 °F 87.2 °F 71.6 °F 70% 30.06 in 10.0 mi East 3.5 mph - N/A   Mostly Cloudy
12:53 PM 84.0 °F 89.6 °F 72.0 °F 67% 30.07 in 10.0 mi Calm Calm - N/A   Scattered Clouds
1:53 PM 84.9 °F 90.7 °F 72.0 °F 65% 30.06 in 10.0 mi Calm Calm - N/A   Mostly Cloudy
2:53 PM 86.0 °F 92.2 °F 72.0 °F 63% 30.05 in 10.0 mi NNE 6.9 mph - N/A   Scattered Clouds
3:53 PM 87.1 °F 94.5 °F 73.0 °F 63% 30.04 in 10.0 mi NNE 4.6 mph - N/A   Clear
4:53 PM 84.0 °F 89.6 °F 72.0 °F 67% 30.03 in 8.0 mi North 8.1 mph - N/A   Mostly Cloudy
5:53 PM 84.9 °F 90.1 °F 71.1 °F 63% 30.01 in 10.0 mi NE 5.8 mph - N/A   Partly Cloudy
6:53 PM 84.0 °F 89.6 °F 72.0 °F 67% 30.01 in 10.0 mi East 3.5 mph - N/A   Clear
7:53 PM 79.0 °F - 73.0 °F 82% 30.01 in 10.0 mi Calm Calm - N/A   Clear
8:39 PM 73.4 °F - 71.6 °F 94% 30.01 in 1.8 mi Calm Calm - N/A   Clear
8:53 PM 73.0 °F - 71.1 °F 93% 30.04 in 1.0 mi Calm Calm - N/A   Clear
9:10 PM 71.6 °F - 71.6 °F 100% 30.03 in 0.8 mi Calm Calm - N/A   Clear
9:19 PM 73.4 °F - 71.6 °F 94% 30.03 in 1.5 mi Calm Calm - N/A   Clear
9:25 PM 73.4 °F - 71.6 °F 94% 30.04 in 3.0 mi Calm Calm - N/A   Clear
9:53 PM 72.0 °F - 70.0 °F 93% 30.06 in 5.0 mi Calm Calm - N/A   Clear
10:53 PM 70.0 °F - 69.1 °F 97% 30.07 in 3.0 mi Calm Calm - N/A   Clear
11:53 PM 71.1 °F - 70.0 °F 96% 30.08 in 5.0 mi Calm Calm - N/A   Clear